[[{"header":{"parameterUnit":"m.s-1","parameterCategory":1,"la1":30.2991,"la2":30.254,"lo1":-89.0895,"lo2":-89.0444,"dy":0.0017,"dx":0.0017,"nx":28,"ny":28,"refTime":"2025-04-13T03:00:00:Z","depth":0,"parameterNumber":2,"parameterNumberName":"U-component_of_WINDS"},"data":[0,0,0,0,0,0,0,0,0,0,0,0,0,0,0,0,0,0,0,0,0,0,0,0,0,0,0,0,0,0,0,0,0,0,0,0,0,0,0,0,0,0,0,0,0,0,0,0,0,0,0,0,0,0,0,0,0,0,3.9696,3.9697,0,3.976,3.9761,3.9762,3.9713,3.9711,3.9709,3.9707,3.9772,3.9775,3.9779,0,0,0,0,0,0,0,0,0,0,0,0,0,3.9529,3.9532,3.9696,3.9697,3.9697,3.976,3.9761,3.9762,3.9713,3.9711,3.9708,3.9706,3.9771,3.9775,3.9779,0,0,0,0,0,0,0,0,0,0,0,0,0,3.9598,3.9533,3.9696,3.9681,3.968,3.976,3.9761,3.9762,3.9714,3.9711,3.9707,3.9704,3.9769,3.9775,3.978,3.9878,0,0,3.9797,3.98,0,0,0,0,0,0,0,0,3.9594,3.9604,3.9682,3.9682,3.9681,3.9725,3.9726,3.9801,3.9715,3.9701,3.9706,3.9703,3.9759,3.9765,3.9784,3.9881,3.9884,3.9798,3.9801,3.9803,3.9805,0,0,0,0,0,0,0,3.959,3.9601,3.9721,3.9683,3.9683,3.967,3.9677,3.974,3.9747,3.9702,3.9698,3.9707,3.9758,3.9779,3.9785,3.9885,3.9797,3.9802,3.9806,3.9808,4.0065,4.0068,0,0,0,0,0,0,3.9586,3.9598,3.9719,3.9723,3.9629,3.9676,3.9683,3.9714,3.9746,3.9748,3.9709,3.9704,3.9771,3.9779,3.9787,3.9903,3.9803,3.9809,3.9812,4.0062,4.0066,4.007,0,0,0,0,0,0,3.9583,3.9598,3.9717,3.966,3.9674,3.9682,3.9718,3.9717,3.9738,3.9752,3.9753,3.973,3.9769,3.978,3.9856,3.9905,3.9811,3.9816,4.0057,4.0063,4.0068,4.0137,0,0,0,0,0,0,3.9578,3.9597,3.9634,3.9661,3.9677,3.9784,3.9721,3.9721,3.9748,3.9742,3.9771,3.9773,3.9767,3.9848,3.9861,3.9911,3.9821,4.0053,4.006,4.0066,4.013,4.0144,4.0156,0,0,0,0,0,3.9573,3.9651,3.9637,3.9651,3.9724,3.9787,3.9797,3.9789,3.9752,3.979,3.9799,3.9772,3.9898,3.9856,3.9871,3.9923,4.005,4.0058,4.0066,4.0125,4.0141,4.0155,0,0,0,0,0,0,3.963,3.9654,3.9638,3.9728,3.9756,3.9779,3.9826,3.9807,3.9845,3.9838,3.9826,3.9833,3.9913,3.9926,3.9879,4.0019,3.9968,3.9979,4.0008,4.0024,4.0036,4.0031,3.9825,0,0,0,0,0,3.9653,3.9703,3.9721,3.9799,3.9814,3.9818,3.9845,3.9837,3.9865,3.9876,3.9891,3.9919,3.9965,3.9995,4.0038,4.0132,4.0137,4.0176,4.0188,4.0199,4.0208,4.0258,4.0274,4.0095,4.0095,4.0095,0,0,3.9701,3.9721,3.9753,3.9811,3.9831,3.9882,3.9828,3.9884,3.9922,3.9885,3.9957,3.9969,4.0,4.0085,4.0124,4.0098,4.0259,4.0209,4.0217,4.022,4.0267,4.0284,4.0299,4.0101,4.01,4.0099,0,0,3.9815,3.9835,3.9901,3.9924,3.9956,3.9958,3.9974,4.0,4.0006,4.0079,4.0052,4.0097,4.0176,4.0199,4.0221,4.0344,4.032,4.0358,4.0424,4.0472,4.0486,4.0499,4.0541,4.0557,4.0368,4.0368,4.0368,0,3.987,3.9947,3.9938,3.9996,4.0022,3.9992,4.0058,4.008,4.0124,4.0143,4.0114,4.0213,4.0231,4.0321,4.0351,4.037,4.0387,4.0354,4.0485,4.0497,4.0509,4.0549,4.0565,4.0372,4.0372,4.0371,4.0371,0,4.0013,4.0066,4.0116,4.016,4.0191,4.0254,4.0254,4.0287,4.0276,4.0281,4.0355,4.0377,4.0423,4.0444,4.0434,4.0533,4.0516,4.0487,4.0434,4.053,4.0568,4.0583,4.0378,4.0377,4.0376,4.0374,0,0,4.0163,4.0202,4.022,4.0239,4.0273,4.0314,4.0374,4.042,4.0448,4.048,4.053,4.0598,4.0571,4.0596,4.0589,4.0632,4.0726,4.0597,4.0597,4.0619,4.0834,4.0855,4.0873,4.0711,4.0714,4.0716,4.0831,0,4.0277,4.0383,4.0377,4.0476,4.0525,4.0497,4.0549,4.0576,4.0582,4.0624,4.0631,4.0679,4.0641,4.0655,4.0697,4.0706,4.0769,4.0698,4.0756,4.0759,4.0748,4.0893,4.0915,4.1022,4.0846,4.0849,4.085,0,4.0424,4.0461,4.0566,4.0591,4.0611,4.0659,4.07,4.0741,4.077,4.0771,4.08,4.0785,4.0846,4.0794,4.0877,4.0828,4.0852,4.086,4.0864,4.0868,4.0809,4.0899,4.1057,4.1072,4.0874,4.0872,4.087,0,4.0522,4.0598,4.067,4.0687,4.072,4.0754,4.0769,4.0794,4.0822,4.0858,4.0876,4.0919,4.0942,4.0975,4.0972,4.0934,4.1056,4.1004,4.1058,4.1058,4.1084,4.1082,4.1245,4.1102,4.1102,4.1101,4.1101,0,4.0649,4.0713,4.0714,4.0758,4.0829,4.0822,4.0892,4.0903,4.0927,4.0972,4.0951,4.0994,4.0988,4.1031,4.1029,4.1097,4.1108,4.1111,4.1109,4.1112,4.1111,4.1126,4.1118,4.1106,4.1105,4.1104,4.1103,0,4.0769,4.0772,4.0848,4.0873,4.0881,4.0932,4.0952,4.0994,4.0999,4.1057,4.107,4.1078,4.1127,4.1128,4.1185,4.1183,4.1266,4.1257,4.1257,4.1254,4.1308,4.1302,4.1486,4.1509,4.1352,4.1353,4.1355,0,4.0849,4.0898,4.0928,4.0957,4.0974,4.1021,4.1049,4.1044,4.1074,4.111,4.1147,4.1195,4.1232,4.1313,4.1323,4.1366,4.1357,4.1418,4.1363,4.1364,4.1356,4.1353,4.1357,4.1429,4.143,4.1432,4.1433,0,4.099,4.0989,4.1031,4.1074,4.1108,4.1141,4.1172,4.1197,4.1195,4.123,4.128,4.1309,4.1367,4.1414,4.1456,4.1471,4.1451,4.1451,4.1465,4.1467,4.1464,4.1465,4.1284,4.1446,4.1445,4.1444,4.1443,4.1442,4.1092,4.1133,4.1161,4.1208,4.1231,4.126,4.1299,4.131,4.1352,4.1398,4.1393,4.1449,4.1476,4.153,4.1549,4.1592,4.1571,4.1592,4.1597,4.1602,4.1607,4.1459,4.16,4.16,4.1599,4.1599,4.1599,0,4.123,4.1247,4.129,4.1334,4.1371,4.135,4.1383,4.1415,4.1464,4.1492,4.1529,4.1587,4.1633,4.1647,4.1691,4.1723,4.1715,4.1734,4.1731,4.1735,4.1625,4.1607,4.174,4.174,4.174,4.174,4.174,4.174,4.1307,4.1376,4.1379,4.1459,4.1475,4.1529,4.155,4.1576,4.1598,4.1663,4.1701,4.171,4.1732,4.1778,4.1818,4.1822,4.1838,4.1861,4.186,4.1757,4.1743,4.1729,4.1712,4.1865,4.1865,4.1966,4.1967,4.1968]},{"header":{"parameterUnit":"m.s-1","parameterCategory":1,"la1":30.2991,"la2":30.254,"lo1":-89.0895,"lo2":-89.0444,"dy":0.0017,"dx":0.0017,"nx":28,"ny":28,"refTime":"2025-04-13T03:00:00:Z","depth":0,"parameterNumber":3,"parameterNumberName":"V-component_of_WINDS"},"data":[0,0,0,0,0,0,0,0,0,0,0,0,0,0,0,0,0,0,0,0,0,0,0,0,0,0,0,0,0,0,0,0,0,0,0,0,0,0,0,0,0,0,0,0,0,0,0,0,0,0,0,0,0,0,0,0,0,0,3.6913,3.6914,0,3.702,3.7022,3.7023,3.7025,3.7024,3.7023,3.7022,3.7129,3.7132,3.7137,0,0,0,0,0,0,0,0,0,0,0,0,0,3.6708,3.6711,3.6913,3.6914,3.6916,3.702,3.7022,3.7023,3.7026,3.7024,3.7022,3.7021,3.7127,3.7132,3.7137,0,0,0,0,0,0,0,0,0,0,0,0,0,3.6804,3.6713,3.6913,3.693,3.6932,3.702,3.7022,3.7024,3.7026,3.7024,3.7022,3.702,3.7126,3.7132,3.7138,3.7215,0,0,3.7156,3.7159,0,0,0,0,0,0,0,0,3.6799,3.6812,3.6926,3.6929,3.6932,3.7008,3.6988,3.7088,3.7027,3.699,3.7022,3.7019,3.709,3.7099,3.7123,3.722,3.7224,3.7157,3.716,3.7163,3.7165,0,0,0,0,0,0,0,3.6792,3.6807,3.6955,3.6927,3.6931,3.6931,3.6943,3.7007,3.705,3.6993,3.6994,3.7007,3.7091,3.7117,3.7126,3.7226,3.7157,3.7162,3.7166,3.7168,3.7391,3.7393,0,0,0,0,0,0,3.6782,3.6801,3.6952,3.6959,3.6859,3.6936,3.6949,3.6985,3.7049,3.7057,3.7008,3.7006,3.7108,3.7118,3.7129,3.7224,3.7163,3.7169,3.7172,3.7389,3.7391,3.7394,0,0,0,0,0,0,3.6778,3.6796,3.6948,3.688,3.69,3.6942,3.6982,3.6988,3.7015,3.706,3.7068,3.7027,3.7107,3.7121,3.7194,3.7227,3.7172,3.7177,3.7386,3.7389,3.7393,3.7413,0,0,0,0,0,0,3.6772,3.6794,3.6824,3.6881,3.6903,3.7011,3.6984,3.6992,3.7025,3.7024,3.708,3.7088,3.7106,3.7184,3.72,3.7235,3.7182,3.7383,3.7388,3.7392,3.7409,3.7417,3.7423,0,0,0,0,0,3.6765,3.6825,3.6826,3.6844,3.6942,3.7013,3.7026,3.7047,3.7028,3.7059,3.7088,3.7086,3.7221,3.7192,3.7209,3.7246,3.7381,3.7386,3.7391,3.7406,3.7415,3.7423,0,0,0,0,0,0,3.6771,3.6833,3.6834,3.6916,3.6959,3.7013,3.7053,3.7055,3.7104,3.7101,3.7124,3.7136,3.7209,3.7235,3.7201,3.7324,3.7299,3.7308,3.7305,3.7313,3.732,3.7312,3.7187,0,0,0,0,0,3.6782,3.6835,3.6886,3.6953,3.6975,3.701,3.7041,3.7054,3.71,3.7118,3.7152,3.7196,3.7248,3.7282,3.7333,3.7413,3.7425,3.7447,3.7454,3.7459,3.7466,3.751,3.7521,3.741,3.741,3.741,0,0,3.6804,3.6845,3.6877,3.6955,3.699,3.7044,3.7025,3.7083,3.7123,3.7126,3.7197,3.7224,3.7274,3.7351,3.7387,3.7375,3.75,3.7466,3.747,3.7474,3.7517,3.7527,3.7536,3.7414,3.7413,3.7413,0,0,3.6874,3.691,3.6969,3.7005,3.7059,3.7082,3.7097,3.7151,3.7169,3.7241,3.7245,3.7292,3.7382,3.7417,3.7447,3.753,3.753,3.7546,3.758,3.7623,3.7632,3.7639,3.7668,3.7679,3.7553,3.7553,3.7553,0,3.6895,3.6977,3.6999,3.7057,3.7091,3.7098,3.7158,3.7191,3.7258,3.7281,3.7267,3.7381,3.7415,3.75,3.752,3.7544,3.756,3.7539,3.7629,3.7637,3.7644,3.7672,3.7683,3.7554,3.7554,3.7554,3.7554,0,3.7,3.7057,3.7098,3.7164,3.7203,3.7261,3.7292,3.7328,3.7337,3.7361,3.7434,3.7475,3.7535,3.7556,3.7565,3.7642,3.7633,3.7624,3.7599,3.7656,3.7683,3.7694,3.7557,3.7556,3.7556,3.7555,0,0,3.7076,3.7154,3.7168,3.7198,3.7259,3.7302,3.7361,3.742,3.745,3.7496,3.7546,3.7622,3.7614,3.7647,3.766,3.7698,3.776,3.7684,3.7685,3.7696,3.7848,3.7854,3.7866,3.7761,3.7763,3.7764,3.7843,0,3.7151,3.7256,3.7278,3.7369,3.7421,3.7428,3.7479,3.7521,3.7545,3.7593,3.7619,3.7673,3.7658,3.7678,3.7716,3.7745,3.7791,3.7739,3.7806,3.7808,3.7793,3.788,3.7887,3.7959,3.7854,3.7856,3.7857,0,3.7253,3.7302,3.7399,3.7452,3.7475,3.752,3.7576,3.7621,3.7669,3.7684,3.7722,3.7731,3.7791,3.7763,3.7846,3.7811,3.7839,3.7857,3.7861,3.7867,3.7835,3.7888,3.7983,3.7994,3.7874,3.7872,3.7871,0,3.7297,3.7388,3.7458,3.7483,3.7547,3.7579,3.7607,3.7653,3.7687,3.7735,3.7757,3.7811,3.7841,3.7882,3.7906,3.7883,3.7986,3.7961,3.8,3.7999,3.8021,3.8019,3.8121,3.804,3.804,3.8039,3.8039,0,3.7379,3.7437,3.7479,3.7521,3.7587,3.7611,3.7675,3.7702,3.7743,3.779,3.78,3.7844,3.7872,3.792,3.7938,3.8004,3.8017,3.803,3.8034,3.8029,3.8027,3.8048,3.8043,3.8042,3.8042,3.8041,3.8041,0,3.7439,3.747,3.7546,3.7601,3.7616,3.7661,3.7708,3.7749,3.7774,3.7833,3.7849,3.7887,3.7944,3.7971,3.8041,3.8054,3.8128,3.8129,3.8112,3.8114,3.8151,3.8147,3.8269,3.8286,3.8194,3.8195,3.8195,0,3.7489,3.7534,3.7594,3.7627,3.7656,3.7709,3.7744,3.777,3.7806,3.7863,3.7897,3.7955,3.8002,3.8092,3.8126,3.8179,3.8181,3.822,3.8189,3.8183,3.8181,3.8178,3.8183,3.8226,3.8227,3.8227,3.8228,0,3.7574,3.7587,3.7637,3.7694,3.7735,3.7781,3.7825,3.7851,3.7883,3.7923,3.7982,3.8019,3.8091,3.8148,3.8204,3.8232,3.8235,3.8238,3.8249,3.8244,3.8233,3.8239,3.8127,3.8234,3.8234,3.8233,3.8233,3.8233,3.763,3.7671,3.7719,3.7776,3.7812,3.7853,3.7895,3.7925,3.7975,3.8036,3.8048,3.811,3.8156,3.8232,3.8262,3.831,3.8301,3.8318,3.8323,3.8326,3.8328,3.8225,3.8321,3.832,3.832,3.832,3.832,0,3.7715,3.7747,3.7798,3.7861,3.7905,3.7905,3.7954,3.7991,3.8046,3.8089,3.8136,3.8203,3.8258,3.8296,3.8352,3.8384,3.8387,3.8397,3.8395,3.8401,3.8333,3.8317,3.8394,3.8394,3.8394,3.8394,3.8394,3.8394,3.7764,3.7833,3.7851,3.7938,3.7969,3.8031,3.8059,3.8097,3.8132,3.8207,3.8253,3.8278,3.8319,3.8378,3.8428,3.8438,3.8458,3.8469,3.8478,3.8414,3.8406,3.8399,3.8384,3.8473,3.8473,3.8542,3.8543,3.8543]}]]